EW4504 Weather Reports


time (UTC)temp
C
wind
direction
speed
KPH
gust
KPH
rain 1hr
cm
rain 24hr
cm
rain mn
cm
humidity
%
barometer
mb
20260903040112 26 0 0.0 0.0 0.00 0.00 0.00 79 1017.8
20260903035534 26 0 0.0 0.0 0.00 0.00 0.00 79 1017.7
20260903035230 26 0 0.0 0.0 0.00 0.00 0.00 78 1017.8
20260903034548 26 0 0.0 0.0 0.00 0.00 0.00 78 1017.9
20260903034036 26 0 0.0 0.0 0.00 0.00 0.00 78 1017.9
20260903033530 26 0 0.0 0.0 0.00 0.00 0.00 78 1018.0
20260903033054 26 0 0.0 0.0 0.00 0.00 0.00 77 1017.9
20260903032532 27 0 0.0 0.0 0.00 0.00 0.00 78 1018.0
20260903032032 27 0 0.0 0.0 0.00 0.00 0.00 78 1018.0
20260903031606 27 0 0.0 0.0 0.00 0.00 0.00 77 1018.0
20260903031029 27 0 0.0 6.4 0.00 0.00 0.00 77 1018.1
20260903030531 27 0 0.0 6.4 0.00 0.00 0.00 77 1018.1
20260903030053 27 42 0.0 0.0 0.00 0.00 0.00 77 1018.0
20260903025533 27 0 0.0 0.0 0.00 0.00 0.00 76 1018.0
20260903025031 27 0 0.0 0.0 0.00 0.00 0.00 76 1018.0
20260903024547 27 0 0.0 0.0 0.00 0.00 0.00 75 1018.0
20260903024029 27 0 0.0 0.0 0.00 0.00 0.00 75 1018.0
20260903023529 27 0 0.0 0.0 0.00 0.00 0.00 74 1018.0
20260903023043 27 0 0.0 0.0 0.00 0.00 0.00 74 1018.0
20260903022533 27 0 0.0 0.0 0.00 0.00 0.00 73 1018.0
20260903022031 27 0 0.0 0.0 0.00 0.00 0.00 73 1017.9
20260903021554 28 0 0.0 0.0 0.00 0.00 0.00 72 1017.9
20260903021034 28 0 0.0 0.0 0.00 0.00 0.00 72 1017.9
20260903020529 28 0 0.0 0.0 0.00 0.00 0.00 71 1017.9
20260903020049 28 0 0.0 0.0 0.00 0.00 0.00 71 1017.9
20260903015529 28 0 0.0 0.0 0.00 0.00 0.00 71 1017.9
20260903015031 28 0 0.0 0.0 0.00 0.00 0.00 71 1017.8
20260903014556 28 0 0.0 0.0 0.00 0.00 0.00 70 1017.7
20260903014032 28 0 0.0 0.0 0.00 0.00 0.00 70 1017.8
20260903013529 28 0 0.0 0.0 0.00 0.00 0.00 70 1017.8
20260903013053 28 0 0.0 0.0 0.00 0.00 0.00 69 1017.6
20260903012532 28 0 0.0 0.0 0.00 0.00 0.00 68 1017.6
20260903012033 29 0 0.0 0.0 0.00 0.00 0.00 67 1017.6
20260903011545 29 0 0.0 0.0 0.00 0.00 0.00 67 1017.6
20260903011032 29 0 0.0 0.0 0.00 0.00 0.00 65 1017.5
20260903010529 30 0 0.0 0.0 0.00 0.00 0.00 65 1017.4
20260903010041 30 0 0.0 0.0 0.00 0.00 0.00 65 1017.3
20260903005532 30 0 0.0 0.0 0.00 0.00 0.00 65 1017.4
20260903005031 30 0 0.0 0.0 0.00 0.00 0.00 65 1017.4
20260903004552 30 0 0.0 0.0 0.00 0.00 0.00 64 1017.4
20260903004030 30 0 0.0 0.0 0.00 0.00 0.00 63 1017.2
20260903003529 30 0 0.0 0.0 0.00 0.00 0.00 63 1017.1
20260903003047 31 0 0.0 0.0 0.00 0.00 0.00 63 1017.1
20260903002528 31 0 0.0 0.0 0.00 0.00 0.00 62 1017.1
20260903002029 31 0 0.0 1.6 0.00 0.00 0.00 61 1017.2
20260903001542 31 0 0.0 1.6 0.00 0.00 0.00 60 1017.0
20260903001036 31 0 0.0 0.0 0.00 0.00 0.00 60 1016.9
20260903000528 31 0 0.0 0.0 0.00 0.00 0.00 59 1017.0
20260903000058 32 0 0.0 0.0 0.00 0.00 0.00 59 1016.9
20260902235529 32 0 0.0 0.0 0.00 0.00 0.00 58 1017.0
20260902235032 32 0 0.0 0.0 0.00 0.00 0.00 58 1017.0
20260902234550 32 0 0.0 0.0 0.00 0.00 0.00 58 1017.0
20260902234030 32 0 0.0 0.0 0.00 0.00 0.00 57 1017.0
20260902233528 32 0 0.0 3.2 0.00 0.00 0.00 57 1016.9
20260902233047 32 0 0.0 3.2 0.00 0.00 0.00 56 1016.9
20260902232530 32 0 0.0 3.2 0.00 0.00 0.00 55 1017.0
20260902232029 33 0 0.0 3.2 0.00 0.00 0.00 55 1016.9
20260902231542 33 0 0.0 3.2 0.00 0.00 0.00 54 1017.0